Miscellaneous Local Product
Issued by NWS North Platte, NE

Home | Current Version | Previous Version | Graphics & Text | Print | Product List | Glossary On
Versions: 1 2 3 4 5 6 7 8 9 10 11 12 13 14 15 16 17 18 19 20 21 22 23 24 25 26 27 28 29 30 31 32 33 34 35 36 37 38 39 40 41 42 43 44 45 46 47 48 49 50
591
AXUS43 KLBF 232110
MISLBF


WESTERN AND NORTH CENTRAL NEBRASKA HOURLY WEATHER ROUNDUP
NATIONAL WEATHER SERVICE NORTH PLATTE NE
400 PM CDT FRI SEP 23 2016

NOTE: "FAIR" INDICATES FEW OR NO CLOUDS BELOW 12,000 FEET WITH NO
SIGNIFICANT WEATHER AND/OR OBSTRUCTIONS TO VISIBILITY.

NOTE: STATIONS NOT REPORTING VARIABLES SUCH AS SKY/WEATHER OR
PRESSURE ARE PROVIDED BY RAWS AND APRS NETWORKS AND ARE NOT UNDER
NATIONAL WEATHER SERVICE QUALITY CONTROL.

...OBSERVATIONS IN AND NEAR THE EASTERN PANHANDLE OF NEBRASKA...

CITY           SKY/WX    TMP DP  RH WIND       PRES   REMARKS
CHADRON        SUNNY     74  58  57 N6        29.73F
ALLIANCE       SUNNY     86  55  34 SE25G35   29.71F
SIDNEY         SUNNY     89  53  29 S26G38    29.74F
CRESCENT LAKE    N/A     86  57  37 S14G22      N/A
$$

...OBSERVATIONS IN NORTHERN NEBRASKA AND FAR SOUTHERN SOUTH DAKOTA...

CITY           SKY/WX    TMP DP  RH WIND       PRES   REMARKS
WINNER         FAIR      94  57  28 S24G33    29.72F HX  92
VALENTINE      SUNNY     90  54  29 S29G40    29.72F
THEDFORD       SUNNY     90  55  30 SE29G38   29.78F
AINSWORTH      SUNNY     88  56  34 SE28G39   29.77F
O`NEILL        SUNNY     90  50  25 S20G31    29.82F
ORD            SUNNY     89  53  29 S17G32    29.82F
BROKEN BOW     SUNNY     88  55  32 S22G38    29.83F
VALENTINE NWR    N/A     90  55  30 S21G33      N/A
BUTTE            N/A     89  57  33 SE20G32     N/A
HALSEY           N/A     89  54  30 S16G31      N/A
EWING            N/A     89  57  33 S12G24      N/A
$$

...OBSERVATIONS IN SOUTHWEST NEBRASKA AND FAR NORTHEAST COLORADO...

CITY           SKY/WX    TMP DP  RH WIND       PRES   REMARKS
WRAY           FAIR      91  48  22 S24G37    29.74F
HOLYOKE        FAIR      91  52  25 S21G36    29.74F
IMPERIAL       LGT RAIN  90  50  25 S31G46    29.75F
OGALLALA       CLOUDY    92  52  25 SE30G39   29.74S
NORTH PLATTE   SUNNY     92  55  28 S23G35    29.76F HX  90
MCCOOK         SUNNY     89  56  32 SE23G37   29.79F
LEXINGTON      SUNNY     89  53  29 S25G37    29.83S
STAPLETON        N/A     88  57  34 NW3G12      N/A
GOTHENBURG       N/A     86  52  30 S17         N/A
CALLAWAY         N/A     86  57  37 S25         N/A
$$

...OBSERVATIONS IN CENTRAL LINCOLN COUNTY AREA...

CITY           SKY/WX    TMP DP  RH WIND       PRES   REMARKS
N.P. AIRPORT   SUNNY     92  55  28 S23G35    29.76F HX  90
N.P. DOWNTOWN    N/A     88  58  36 S9G24       N/A
N.P. SOUTHEAST   N/A     88  58  35 SE16G31     N/A
N.P. HILLCREST   N/A     88  58  35 SE22G33     N/A
$$

...SOME OBSERVATIONS FROM AROUND THE REGION...

CITY           SKY/WX    TMP DP  RH WIND       PRES   REMARKS
DENVER         MOSUNNY   87  37  17 SE25G40   29.70F
LARAMIE        LGT RAIN  47  42  83 W17       29.98R
CHEYENNE       CLOUDY    71  53  52 N14       29.80F
SCOTTSBLUFF    SUNNY     84  57  39 N6        29.70F
RAPID CITY     MOSUNNY   70  59  68 S6        29.75F
BISMARCK       CLOUDY    60  57  89 E16       29.86S
PIERRE         SUNNY     89  64  43 SE20G25   29.68F HX  90
SIOUX FALLS    MOSUNNY   86  63  45 SE20      29.88F
OMAHA          MOSUNNY   90  61  37 SE20      29.91F HX  90
GRAND ISLAND   SUNNY     88  58  36 S20G29    29.87F
KANSAS CITY    MOSUNNY   85  65  51 S10       29.98F
WICHITA        MOSUNNY   88  63  43 SE18G26   29.92F
OKLAHOMA CITY  PTSUNNY   87  70  56 S16       29.93F HX  92
DALLAS         PTSUNNY   93  65  39 S15       29.91F HX  95
AMARILLO       MOSUNNY   84  59  42 S26G32    29.92F
DODGE CITY     SUNNY     89  53  29 S26G32    29.88F
HAYS           MOSUNNY   91  55  29 S22G31    29.85F
GOODLAND       SUNNY     87  52  29 S28G43    29.78F
$$




USA.gov is the U.S. government's official web portal to all federal, state and local government web resources and services.